Weather History for Evergreen, AL

Change the Weather History Date:

Wednesday, May 15, 2013

  Actual Average (KPRN) Record (KPRN)
Temperature  
Mean Temperature 70 °F -  
Max Temperature 87 °F 85 °F 94 °F (1933)
Min Temperature 54 °F 59 °F 48 °F (1981)
Cooling Degree Days 5    
Growing Degree Days 20 (Base 50)    
Moisture  
Dew Point 56 °F    
Average Humidity 62    
Maximum Humidity 90    
Minimum Humidity 37    
Precipitation  
Precipitation 0.00 in - - ()
Sea Level Pressure  
Sea Level Pressure 30.16 in    
Wind  
Wind Speed 2 mph (SSW)    
Max Wind Speed 8 mph    
Max Gust Speed -    
Visibility 10 miles    
Events      
Averages and records for this station are not official NWS values.
T = Trace of Precipitation, MM = Missing Value Source: NWS Daily Summary

Daily Weather History Graph

Daily Weather History Graph

Search for Another Location

Airport:

Trip Planner

Search our weather history database for the weather conditions in past years. The results will help you decide how hot, cold, wet, or windy it might be!

Date:

Astronomy

May. 15, 2013 Rise Set
Actual Time 5:51 AM CDT 7:37 PM CDT
Civil Twilight 5:25 AM CDT 8:04 PM CDT
Nautical Twilight 4:53 AM CDT 8:36 PM CDT
Astronomical Twilight 4:19 AM CDT 9:10 PM CDT
Moon 10:23 AM CDT (5/15) No Moon Set
Length of Visible Light 14h 39m
Length of Day
13h 45m
Waxing Crescent, 27% of the Moon is Illuminated
May 15
Waxing Crescent
May 17
First Quarter
May 24
Full
May 31
Last Quarter
Jun 8
New

Hourly Weather History & Observations

Time (CDT) Temp. Heat Index Dew Point Humidity Pressure Visibility Wind Dir Wind Speed Gust Speed Precip Events Conditions
12:53 AM 59.0 °F - 54.0 °F 83% 30.19 in 10.0 mi Calm Calm - N/A   Clear
1:53 AM 57.9 °F - 54.0 °F 87% 30.19 in 10.0 mi Calm Calm - N/A   Clear
2:53 AM 57.0 °F - 53.1 °F 87% 30.18 in 10.0 mi Calm Calm - N/A   Clear
3:53 AM 55.9 °F - 53.1 °F 90% 30.19 in 7.0 mi Calm Calm - N/A   Clear
4:53 AM 55.0 °F - 52.0 °F 89% 30.21 in 7.0 mi Calm Calm - N/A   Clear
5:53 AM 54.0 °F - 51.1 °F 90% 30.22 in 7.0 mi Calm Calm - N/A   Clear
6:53 AM 57.0 °F - 53.1 °F 87% 30.23 in 10.0 mi Calm Calm - N/A   Clear
7:53 AM 64.0 °F - 57.9 °F 80% 30.24 in 10.0 mi Calm Calm - N/A   Clear
8:53 AM 72.0 °F - 61.0 °F 68% 30.24 in 10.0 mi West 4.6 mph - N/A   Clear
9:53 AM 75.9 °F - 62.1 °F 62% 30.24 in 10.0 mi WSW 3.5 mph - N/A   Clear
10:53 AM 80.1 °F 80.7 °F 59.0 °F 48% 30.23 in 10.0 mi Calm Calm - N/A   Clear
11:53 AM 81.0 °F 81.3 °F 59.0 °F 47% 30.21 in 10.0 mi Variable 4.6 mph - N/A   Clear
12:53 PM 82.9 °F 82.6 °F 57.9 °F 42% 30.18 in 10.0 mi SW 3.5 mph - N/A   Clear
1:53 PM 82.9 °F 82.4 °F 57.0 °F 41% 30.16 in 10.0 mi SSW 5.8 mph - N/A   Clear
2:53 PM 86.0 °F 85.4 °F 59.0 °F 40% 30.13 in 9.0 mi Variable 5.8 mph - N/A   Clear
3:53 PM 86.0 °F 85.4 °F 59.0 °F 40% 30.10 in 10.0 mi Calm Calm - N/A   Overcast
4:53 PM 84.9 °F 83.7 °F 55.9 °F 37% 30.09 in 10.0 mi SSE 6.9 mph - N/A   Partly Cloudy
5:53 PM 84.0 °F 82.9 °F 55.0 °F 37% 30.07 in 10.0 mi South 5.8 mph - N/A   Clear
6:53 PM 78.1 °F - 59.0 °F 52% 30.06 in 10.0 mi Calm Calm - N/A   Clear
7:53 PM 75.9 °F - 55.9 °F 50% 30.07 in 10.0 mi SSW 8.1 mph - N/A   Clear
8:53 PM 73.9 °F - 54.0 °F 50% 30.07 in 10.0 mi South 4.6 mph - N/A   Clear
9:53 PM 71.1 °F - 54.0 °F 55% 30.09 in 10.0 mi South 4.6 mph - N/A   Clear
10:53 PM 68.0 °F - 55.0 °F 63% 30.08 in 10.0 mi South 3.5 mph - N/A   Clear
11:53 PM 69.1 °F - 55.9 °F 63% 30.07 in 10.0 mi Calm Calm - N/A   Clear